Terug naar catalogus

NOAA 16 DEB

ActiefSSO
NORAD 41126·DEBRIS·🇺🇸 United States

Gelanceerd Sep 21, 2000 vanaf Vandenberg Space Force Base

Loading…

Volgende Passages (komende 24 uur)

TLE

VersSource: Space-Track

Epoch: Sep 14, 2026, 11:17 UTC

1 41126U 00055BH  26257.47035309  .00001902  00000-0  99591-3 0  9995
2 41126  98.7707 258.5497 0067234 100.6658 260.2095 14.14295098551954

Volg NOAA 16 DEB in realtime met AllMySat

Download on the App Store